Powrót do katalogu

CZ-6A DEB

AktywnyPO
NORAD 54482·DEBRIS·🇨🇳 China

Wystrzelony Nov 11, 2022 z Taiyuan Satellite Launch Center

Loading…

Następne Przeloty (najbliższe 24 godziny)

TLE

ŚwieżeSource: Space-Track

Epoka: Sep 14, 2026, 04:27 UTC

1 54482U 22151HJ  26257.18573303  .00008839  00000-0  11526-2 0  9991
2 54482  98.6270 334.4352 0059067 347.8205  12.1573 14.79590506203603

Śledź CZ-6A DEB w czasie rzeczywistym z AllMySat

Download on the App Store